#timestamp,LO_Frequency,Hit,StdDev 
1509458415.4,286046999.9,N
1509458435.2,286046998.8,N
1509458455.1,286046999.1,N
1509458456.0,286046999.1,N
1509458475.8,286047000.3,N
1509458495.6,286046998.4,N
1509458515.5,286046997.2,N
1509458535.3,286046993.8,N
1509458555.1,286046995.3,N
1509458575.9,286046995.7,N
1509458595.7,286046991.7,N
1509458615.5,286046991.7,N
1509458635.4,286046995.2,N
1509458655.2,286046995.2,N
1509458675.0,286046999.0,N
1509458676.0,286046999.0,N
1509458695.8,286047000.5,N
1509458715.6,286047002.6,N
1509458735.5,286047004.0,N
1509458755.3,286047001.5,N
1509458775.1,286046999.4,N
1509458795.9,286046999.1,N
1509458815.7,286046999.2,N
1509458835.5,286046997.7,N
1509458855.4,286046997.5,N
1509458875.2,286046995.8,N
1509458895.0,286046996.4,N
1509458895.9,286046996.4,N
1509458915.8,286046995.8,N
1509458935.6,286047000.9,N
1509458955.4,286047000.2,N
1509458975.3,286047000.3,N
1509458995.1,286046998.2,N
1509459015.8,286047000.0,N
1509459035.7,286046997.2,N
1509459055.5,286046998.5,N
1509459075.3,286047002.0,N
1509459095.2,286047005.6,N
1509459115.0,286047002.5,N
1509459115.9,286047002.5,N
1509459135.8,286046998.1,N
1509459155.6,286047002.5,N
1509459175.4,286047001.3,N
1509459195.3,286047003.9,N
1509459215.1,286047000.3,N
1509459235.8,286047002.1,N
1509459255.7,286047001.5,N
1509459275.5,286046998.5,N
1509459295.3,286046997.0,N
1509459315.2,286046998.9,N
1509459335.0,286047001.7,N
1509459335.9,286047001.7,N
1509459355.7,286046998.1,N
1509459375.6,286047000.7,N
1509459395.4,286047002.7,N
1509459415.2,286047003.9,N
1509459435.1,286047004.8,N
1509459436.0,286047004.8,N
1509459455.8,286047002.6,N
1509459475.7,286047002.0,N
1509459495.5,286046999.9,N
1509459515.3,286047000.4,N
1509459535.2,286047002.1,N
1509459555.9,286047003.7,N
1509459575.7,286047005.8,N
1509459595.6,286047002.2,N
1509459615.4,286047002.5,N
1509459635.2,286047004.3,N
1509459655.1,286047005.7,N
1509459656.0,286047005.7,N
1509459675.8,286047006.6,N
1509459695.6,286047007.2,Y
1509459715.5,286047003.1,P
1509459735.3,286047005.9,P
1509459755.1,286047004.2,N
1509459775.9,286047005.6,Y
1509459795.7,286047003.1,P
1509459815.6,286047004.6,P
1509459835.4,286047005.5,P
1509459855.2,286047003.3,Y
1509459875.1,286046998.4,P
1509459876.0,286046998.4,N
1509459895.8,286047001.7,N
1509459915.6,286046999.2,N
1509459935.5,286046998.4,N
1509459955.3,286046998.3,N
1509459975.1,286046993.7,N
1509459995.9,286046994.6,N
1509460015.7,286046993.2,N
1509460035.5,286046994.6,N
1509460055.4,286046992.4,N
1509460075.2,286046996.2,N
1509460095.0,286046996.1,N
1509460096.0,286046996.1,N
1509460115.8,286046996.0,N
1509460135.6,286046996.6,N
1509460155.5,286046997.6,N
1509460175.3,286046994.6,N
1509460195.1,286046990.7,Y
1509460215.9,286046993.2,P
1509460235.7,286046994.8,N
1509460255.5,286046993.7,P
1509460275.4,286046996.0,N
1509460295.2,286046995.4,Y
1509460315.0,286047000.6,P
1509460315.9,286047000.6,N
1509460335.8,286046997.5,N
1509460355.6,286046996.8,N
1509460375.4,286047000.2,N
1509460395.3,286046998.1,N
1509460415.1,286046995.6,N
1509460435.9,286046993.7,Y
1509460455.7,286046998.4,P
1509460475.5,286047000.6,P
1509460495.4,286047000.0,N
1509460515.2,286046997.2,N
1509460535.0,286046997.8,N
1509460535.9,286046997.8,N
1509460555.8,286046994.6,Y
1509460575.6,286046997.3,P
1509460595.4,286046996.6,P
1509460615.3,286046996.9,P
1509460635.1,286047001.7,N
1509460655.8,286047002.6,N
1509460675.7,286047000.5,N
1509460695.5,286047002.8,N
1509460715.3,286046998.6,N
1509460735.2,286046998.6,N
1509460755.0,286046999.6,N
1509460755.9,286046999.6,N
1509460775.8,286046997.2,N
1509460795.6,286046997.9,N
1509460815.4,286046995.0,N
1509460835.3,286046998.8,N
1509460855.1,286046999.9,N
1509460856.0,286046999.9,N
1509460875.8,286047000.5,N
1509460895.7,286047003.6,N
1509460915.5,286047001.6,N
1509460935.3,286046998.8,N
1509460955.2,286046995.3,N
1509460975.9,286046996.5,N
1509460995.7,286046998.1,N
1509461015.6,286047000.2,N
1509461035.4,286047002.2,N
1509461055.2,286047003.6,N
1509461075.1,286047004.3,N
1509461076.0,286047004.3,N
1509461095.8,286047004.3,N
1509461115.6,286047005.6,N
1509461135.5,286047005.3,N
1509461155.3,286046998.7,N
1509461175.1,286046995.7,N
1509461195.9,286046997.8,N
1509461215.7,286046997.2,N
1509461235.5,286046997.8,N
1509461255.4,286046998.9,N
1509461275.2,286046998.0,N
1509461295.1,286046995.1,N
1509461296.0,286046995.1,N
1509461315.8,286046995.2,N
1509461335.6,286046997.5,N
1509461355.5,286046997.1,N
1509461375.3,286046998.1,N
1509461395.1,286047000.7,N
1509461415.9,286046995.8,N
1509461435.7,286046994.0,N
1509461455.5,286046998.0,N
1509461475.4,286046995.7,N
1509461495.2,286046997.0,N
1509461515.0,286046998.4,N
1509461515.9,286046998.4,N
1509461535.8,286046995.0,N
1509461555.6,286046993.8,N
1509461575.4,286046998.0,N
1509461595.3,286046997.0,N
1509461615.1,286046998.9,N
1509461635.8,286046997.4,N
1509461655.7,286046999.2,N
1509461675.5,286046995.5,N
1509461695.3,286046995.0,N
1509461715.2,286046995.7,N
1509461735.0,286046995.3,N
1509461735.9,286046995.3,N
1509461755.8,286046995.6,N
1509461775.6,286046996.4,N
1509461795.4,286046995.1,N
1509461815.3,286046997.4,N
1509461835.1,286046998.9,N
1509461836.0,286046998.9,N
1509461855.8,286046998.0,N
1509461875.7,286046993.7,Y
1509461895.5,286046994.9,P
1509461915.3,286046997.3,N
1509461935.2,286046998.3,N
1509461955.0,286046996.6,N
1509461955.9,286046996.6,Y
1509461975.8,286047002.0,P
1509461995.6,286047004.1,N
